Weather in Rakitino

Russia / Tula Oblast     53°48′28″N   38°27′59″E
temp.,
°C
wind,
m/s
gust,
m/s
humid.,
%
clouds,
%
prec.,
mm/h
press.,
hPa
HPBL,
m
21 april, wed
wed2100:00+1ne5999100 1.1 1008302
03:00+1n47100100 4.5 1004201
06:00+1wnw24100100 2.9 1004103
09:00+1w36100100 3.5 1006268
12:00+3wsw4795100 0.0 1008612
15:00+5w4788100 0.1 1010832
18:00+4sw3691100 0.0 1012337
21:00+4s3592100 0.1 1014118
22 april, thu
thu2200:00+4ssw2495100 0.2 1014125
03:00+4w369497 0.6 1015429
06:00+4sw379252 0.0 1017304
09:00+6sw498494 0.0 1018667
12:00+11ssw686594 0.0 10181373
15:00+12ssw5865100 0.1 10181333
18:00+12ssw6106998 0.4 1017618
21:00+9s4108584 0.9 1018202
23 april, fri
fri2300:00+9s6138352 0.0 1018351
03:00+7s5128776 0.0 1018258
06:00+8s5138299 0.0 1018286
09:00+12s6126696 0.0 1018549
12:00+16s794578 0.0 10172497
15:00+15s7104876 0.0 10162345
18:00+14sse610585 0.5 1015758
21:00+11sse613725 0.5 1014337
24 april, sat
sat2400:00+9sse5137880 0.1 1012314
03:00+8s61384100 0.3 1010485
06:00+8se4889100 0.1 1009279
09:00+7wsw4692100 0.9 1008735
12:00+3w51195100 2.6 1010598
15:00+8w6963100 3.1 10101385
18:00+7wsw710586 0.4 10101088
21:00+4wsw511765 0.5 1011457
25 april, sun
sun2500:00+3wsw511825 0.0 1011400
03:00+1sw510895 0.0 1011355
06:00+1wsw510918 0.0 1012428
09:00+5w687039 0.0 10121100
12:00+7w575499 0.3 10121758
15:00+8wsw6851100 1.4 10121738
18:00+7wsw6861100 1.0 10121144
21:00+4sw41073100 1.5 1013386